Location: Observatory
(52.1446°N, 0.4624°W)
Time: 02:05:53
(UTC+01:00)

ISS - Pass Details

Date: 19 May 2018
Orbit: 402 x 406 km, 51.6° (Epoch: 21 June)

Event Time Altitude Azimuth Distance (km) Brightness Sun altitude
Exits shadow 02:58:11 - 276° (W) 2,009 -0.5 -13.5°
Reaches altitude 10° 02:59:31 10° 275° (W) 1,460 -1.3 -13.4°
Maximum altitude 03:02:47 73° 191° (S) 426 -4.0 -13.2°
Drops below altitude 10° 03:06:02 10° 106° (ESE) 1,457 -0.8 -12.9°
Sets 03:08:07 0° 105° (ESE) 2,316 0.2 -12.8°
